www.pogodaiklimat.ru
ПОГОДА в Сентоб-Нурате

Архив погоды в Сентоб-Нурате (Навоийская область, Узбекистан)

Время
и дата
21:30 22.05
21:50 22.05
22:10 22.05
22:20 22.05
22:30 22.05
22:40 22.05
23:00 22.05
23:10 22.05
23:30 22.05
23:50 22.05
00:00 23.05
00:10 23.05
00:30 23.05
00:40 23.05
00:50 23.05
01:00 23.05
01:10 23.05
01:20 23.05
01:30 23.05
01:50 23.05
02:00 23.05
02:10 23.05
02:20 23.05
02:30 23.05
02:40 23.05
02:50 23.05
03:00 23.05
03:10 23.05
03:30 23.05
03:40 23.05
03:50 23.05
04:10 23.05
04:30 23.05
04:40 23.05
04:50 23.05
05:10 23.05
05:20 23.05
05:30 23.05
05:40 23.05
06:00 23.05
06:10 23.05
06:20 23.05
06:30 23.05
06:40 23.05
06:50 23.05
07:00 23.05
07:10 23.05
07:30 23.05
07:50 23.05
08:00 23.05
08:10 23.05
08:20 23.05
08:30 23.05
08:40 23.05
08:50 23.05
09:00 23.05
09:10 23.05
09:20 23.05
09:40 23.05
09:50 23.05
10:00 23.05
10:10 23.05
10:20 23.05
10:30 23.05
10:40 23.05
10:50 23.05
11:00 23.05
11:20 23.05
11:30 23.05
11:40 23.05
12:00 23.05
12:20 23.05
12:30 23.05
12:50 23.05
13:00 23.05
13:10 23.05
13:20 23.05
13:40 23.05
13:50 23.05
14:10 23.05
14:30 23.05
14:50 23.05
15:00 23.05
15:20 23.05
15:30 23.05
15:40 23.05
15:50 23.05
16:00 23.05
16:20 23.05
16:30 23.05
16:40 23.05
16:50 23.05
17:10 23.05
17:40 23.05
17:50 23.05
18:10 23.05
18:20 23.05
18:30 23.05
18:40 23.05
18:50 23.05
19:00 23.05
19:20 23.05
19:40 23.05
19:50 23.05
20:10 23.05
20:20 23.05
20:40 23.05
20:50 23.05
21:00 23.05
21:10 23.05
21:20 23.05
21:30 23.05
21:40 23.05
21:50 23.05
22:10 23.05
22:20 23.05
22:30 23.05
22:40 23.05
23:00 23.05
23:10 23.05
23:30 23.05
23:40 23.05
23:50 23.05
00:00 24.05
00:20 24.05
00:30 24.05
00:40 24.05
00:50 24.05
01:00 24.05
01:10 24.05
01:20 24.05
01:30 24.05
01:50 24.05
02:10 24.05
02:20 24.05
02:30 24.05
02:50 24.05
03:00 24.05
03:10 24.05
03:20 24.05
03:30 24.05
03:40 24.05
03:50 24.05
04:00 24.05
Ветер
(напр.,м/с)
Видимость Явления Солнечная радиация
(Вт/м2)
Т
(С)
Тd
(С)
f
(%)
Тe
(С)
Тes
(С)
Комфортность P
(гПа)
Po
(гПа)
Тmin
(С)
Tmax
(С)
R
(мм)
СВ 4.8
{7.6}
+21.4 +8.4 43 +23 +23 комфорт 1017.3 973.9 +21.5 +21.4
ЮВ 2.6
{4.8}
+21.1 +9.1 46 +22 +22 комфорт 1017.7 974.3 +21.2 +21.1
ЮВ 3.5
{5.9}
+21.2 +9.2 46 +22 +22 комфорт 1017.6 974.2 +21.2 +21.0
В 3.9
{5.8}
+21.1 +9.1 46 +22 +22 комфорт 1017.5 974.1 +21.2 +21.1
В 3.4
{5.6}
+21.1 +9.2 46 +22 +22 комфорт 1017.5 974.1 +21.2 +21.1
В 4.6
{6.7}
+21.1 +8.6 44 +22 +22 комфорт 1017.1 973.7 +21.1 +21.1
ЮВ 3.8
{6.9}
+21.7 +6.6 38 +22 +22 комфорт 1017.1 973.7 +21.7 +21.4
В 4.4
{6.8}
+21.7 +6.6 38 +22 +22 комфорт 1017.0 973.6 +21.7 +21.6
В 4.3
{5.7}
+21.3 +6.6 38 +22 +22 комфорт 1016.7 973.3 +21.6 +21.3
В 4.9
{7.5}
+21.6 +5.8 36 +22 +22 комфорт 1016.2 972.8 +21.6 +21.3
В 6.0
{8.2}
+21.7 +5.7 35 +22 +22 комфорт 1016.0 972.6 +21.7 +21.6
В 5.8
{8.5}
+21.7 +5.3 34 +22 +22 комфорт 1015.9 972.5 +21.8 +21.7
В 5.3
{8.2}
+21.9 +4.8 33 +22 +22 комфорт 1015.8 972.4 +22.0 +21.8
В 5.6
{8.1}
+22.0 +4.6 32 +22 +22 комфорт 1015.6 972.2 +22.1 +21.9
В 5.4
{8.0}
+22.1 +4.5 32 +22 +22 комфорт 1015.5 972.1 +22.1 +22.0
В 5.8
{8.1}
+22.2 +4.2 31 +22 +22 комфорт 1015.5 972.1 +22.2 +22.1
В 5.7
{8.6}
+22.2 +3.7 30 +22 +22 комфорт 1015.4 972.0 +22.2 +22.1
В 6.2
{9.3}
+22.4 +3.1 28 +22 +22 комфорт 1015.3 971.9 +22.4 +22.2
В 6.1
{9.6}
+22.6 +2.9 27 +22 +22 комфорт 1015.2 971.8 +22.6 +22.4
В 6.9
{9.6}
+22.5 +2.9 28 +22 +22 комфорт 1015.1 971.7 +22.6 +22.4
В 6.6
{9.3}
+22.4 +2.7 27 +22 +22 комфорт 1014.9 971.6 +22.5 +22.3
В 6.8
{9.8}
+22.4 +2.9 28 +22 +22 комфорт 1014.8 971.5 +22.4 +22.3
В 6.2
{9.0}
+22.2 +3.2 29 +22 +22 комфорт 1014.9 971.6 +22.4 +22.2
В 5.3
{7.6}
+22.2 +3.4 29 +22 +22 комфорт 1015.2 971.8 +22.2 +22.2
В 5.1
{6.9}
+22.0 +4.0 31 +22 +22 комфорт 1015.3 971.9 +22.2 +22.0
СВ 5.1
{6.8}
+20.9 +5.9 38 +22 +22 комфорт 1015.4 972.0 +22.0 +20.9
СВ 5.1
{6.5}
+20.7 +5.3 37 +21 +21 комфорт 1015.5 972.1 +20.9 +20.5
СВ 4.9
{6.8}
+20.7 +6.4 39 +22 +22 комфорт 1015.4 972.0 +20.9 +20.7
СВ 4.3
{5.6}
+19.9 +7.7 45 +21 +21 комфорт 1015.4 972.0 +20.1 +19.9
СВ 4.2
{5.4}
+19.9 +7.8 46 +21 +21 комфорт 1015.3 971.9 +19.9 +19.9
СВ 3.8
{5.4}
+19.7 +8.4 48 +21 +21 комфорт 1015.3 971.9 +19.9 +19.7
ЮВ 2.0
{3.4}
+19.4 +8.4 49 +21 +21 комфорт 1015.2 971.8 +19.3 +19.2
СВ 3.3
{4.9}
+19.3 +9.3 52 +20 +20 1015.2 971.8 +19.8 +19.2
СВ 3.5
{4.3}
+19.2 +10.3 57 +20 +20 1015.2 971.8 +19.5 +19.2
СВ 4.4
{5.8}
+18.9 +10.6 58 +19 +19 1015.2 971.8 +19.2 +18.9
СВ 3.9
{5.1}
+19.0 +10.6 58 +20 +20 1015.3 971.9 +19.0 +19.0
СВ 3.4
{4.4}
+18.8 +11.2 61 +20 +20 1015.3 971.9 +19.0 +18.8
В 2.6
{3.6}
+18.6 +11.7 64 +19 +19 1015.4 972.0 +18.8 +18.6
СВ 2.4
{3.1}
+18.5 +11.9 66 +19 +19 1015.3 971.9 +18.6 +18.5
В 3.4
{4.4}
+18.6 +11.7 64 +19 +19 1015.3 971.9 +18.6 +18.4
СВ 3.2
{4.4}
+18.6 +12.5 68 +19 +19 1015.4 972.0 +18.6 +18.6
СВ 3.1
{4.5}
+18.6 +12.4 67 +19 +19 1015.5 972.1 +18.6 +18.5
В 3.3
{4.2}
+18.7 +12.6 67 +20 +20 1015.5 972.1 +18.7 +18.6
В 3.7
{5.1}
+19.1 +11.7 62 +20 +20 1015.5 972.1 +19.1 +18.7
В 3.0
{4.4}
+19.4 +10.8 58 +21 +21 комфорт 1015.5 972.1 +19.4 +19.1
В 2.9
{4.1}
+19.8 +10.0 53 +21 +21 комфорт 1015.5 972.1 +19.8 +19.4
В 3.1
{4.3}
+20.1 +9.9 52 +22 +22 комфорт 1015.5 972.1 +20.1 +19.8
В 4.9
{7.6}
+20.9 +8.5 45 +22 +22 комфорт 1015.4 972.0 +20.9 +20.6
СВ 4.9
{6.3}
+21.7 +8.7 43 +23 +23 комфорт 1015.4 972.0 +21.7 +21.3
В 6.0
{8.5}
+22.5 +7.5 38 +23 +23 комфорт 1015.3 971.9 +22.8 +21.7
В 5.4
{8.3}
+22.4 +8.1 40 +24 +24 комфорт 1015.3 971.9 +22.5 +22.1
СВ 6.3
{8.7}
+23.2 +7.1 36 +24 +24 комфорт 1015.3 971.9 +23.2 +22.3
СВ 6.9
{9.1}
+23.4 +7.1 35 +24 +24 комфорт 1015.3 971.9 +23.4 +23.2
В 6.5
{9.3}
+23.6 +7.2 35 +24 +24 комфорт 1015.3 971.9 +23.6 +23.3
В 6.5
{9.4}
+24.0 +5.9 31 +24 +24 комфорт 1015.3 971.9 +24.0 +23.6
В 7.3
{9.9}
+24.0 +5.9 31 +24 +24 комфорт 1015.2 971.8 +24.0 +23.8
В 7.6
{10.3}
+24.4 +6.1 31 +24 +24 комфорт 1015.1 971.7 +24.4 +24.0
СВ 7.7
{10.6}
+24.6 +6.1 31 +25 +25 комфорт 1015.1 971.7 +24.6 +24.4
В 7.6
{10.0}
+24.8 +5.9 30 +25 +25 комфорт 1015.1 971.7 +25.0 +24.7
В 8.0
{11.3}
+25.1 +6.5 30 +25 +25 комфорт 1015.1 971.7 +25.1 +24.6
СВ 7.3
{11.1}
+25.2 +6.7 31 +25 +25 комфорт 1015.1 971.7 +25.5 +25.1
В 7.4
{10.1}
+25.3 +6.9 31 +25 +25 комфорт 1015.1 971.7 +25.3 +25.1
СВ 6.8
{9.8}
+25.6 +7.0 31 +26 +26 жарко 1015.1 971.7 +25.9 +25.3
СВ 7.5
{10.7}
+26.1 +6.7 29 +26 +26 жарко 1015.1 971.7 +26.1 +25.5
СВ 7.9
{11.0}
+26.0 +6.5 29 +26 +26 жарко 1015.1 971.7 +26.1 +25.7
СВ 7.7
{11.7}
+26.2 +6.4 28 +26 +26 жарко 1015.1 971.7 +26.3 +25.8
СВ 7.9
{12.1}
+26.0 +6.0 28 +26 +26 жарко 1015.1 971.7 +26.4 +25.8
СВ 7.5
{11.8}
+26.8 +6.5 28 +26 +26 жарко 1014.9 971.6 +26.8 +26.3
СВ 6.6
{9.5}
+26.8 +6.4 27 +26 +26 жарко 1014.8 971.5 +26.9 +26.4
СВ 7.7
{12.2}
+27.0 +6.0 26 +26 +26 жарко 1014.7 971.4 +27.0 +26.3
СВ 7.0
{11.9}
+27.2 +5.5 25 +26 +26 жарко 1014.5 971.2 +27.4 +26.8
В 7.0
{11.6}
+27.4 +4.6 23 +26 +26 жарко 1014.2 970.9 +27.5 +27.1
СВ 7.3
{10.9}
+27.3 +4.7 24 +26 +26 жарко 1014.0 970.7 +27.4 +27.0
В 7.1
{13.0}
+28.0 +4.6 22 +27 +27 жарко 1013.7 970.4 +28.0 +27.2
СВ 6.7
{10.9}
+27.9 +4.8 23 +27 +27 жарко 1013.6 970.3 +28.5 +27.9
СВ 7.0
{11.1}
+27.7 +4.6 23 +26 +26 жарко 1013.3 970.0 +27.9 +27.5
СВ 6.1
{10.2}
+28.3 +4.7 22 +27 +27 жарко 1013.3 970.0 +28.2 +27.6
В 7.2
{12.3}
+27.6 +4.5 23 +26 +26 жарко 1013.3 970.0 +28.0 +27.6
В 6.5
{10.2}
+28.3 +4.5 22 +27 +27 жарко 1013.3 970.0 +28.5 +27.6
В 6.9
{10.7}
+28.3 +4.5 22 +27 +27 жарко 1012.9 969.6 +28.6 +28.3
СВ 5.9
{9.1}
+28.4 +4.1 21 +27 +27 жарко 1012.7 969.4 +28.9 +28.4
В 6.1
{10.0}
+29.0 +4.4 21 +27 +27 жарко 1012.2 969.0 +29.0 +28.0
СВ 6.4
{9.9}
+28.3 +4.0 21 +27 +27 жарко 1012.0 968.8 +29.0 +28.2
СВ 6.4
{10.2}
+28.6 +3.9 21 +27 +27 жарко 1011.8 968.6 +28.7 +28.3
В 6.1
{9.3}
+28.9 +4.0 20 +27 +27 жарко 1011.7 968.5 +28.9 +28.6
СВ 6.8
{10.9}
+28.8 +3.6 20 +27 +27 жарко 1011.6 968.4 +28.9 +28.4
СВ 6.4
{10.5}
+28.9 +3.9 20 +27 +27 жарко 1011.4 968.2 +28.8 +28.4
В 6.7
{10.9}
+28.7 +3.8 20 +27 +27 жарко 1011.3 968.1 +29.3 +28.7
В 6.4
{9.3}
+28.5 +3.5 20 +27 +27 жарко 1011.0 967.8 +29.1 +28.5
СВ 5.6
{9.4}
+28.6 +3.4 20 +27 +27 жарко 1011.0 967.8 +29.0 +28.5
В 6.2
{9.9}
+28.7 +3.4 20 +27 +27 жарко 1010.9 967.7 +28.9 +28.5
В 5.5
{9.5}
+29.0 +3.6 20 +27 +27 жарко 1010.8 967.6 +29.0 +28.6
В 6.2
{9.2}
+28.7 +3.9 21 +27 +27 жарко 1010.5 967.3 +28.8 +28.6
В 5.7
{7.6}
+28.5 +3.7 20 +27 +27 жарко 1010.3 967.1 +28.8 +28.4
В 6.2
{9.9}
+28.5 +4.0 21 +27 +27 жарко 1010.1 966.9 +28.7 +28.5
В 5.7
{8.6}
+28.1 +4.5 22 +27 +27 жарко 1010.1 966.9 +28.4 +28.1
В 6.2
{8.9}
+28.0 +4.4 22 +27 +27 жарко 1010.1 966.9 +28.1 +28.0
В 5.8
{8.3}
+27.9 +4.4 22 +26 +26 жарко 1010.1 966.9 +28.0 +27.9
В 6.4
{9.3}
+27.7 +4.9 23 +26 +26 жарко 1010.1 966.9 +27.9 +27.7
В 6.3
{8.3}
+27.5 +5.2 24 +26 +26 жарко 1010.1 966.9 +27.7 +27.5
В 5.3
{8.0}
+27.1 +4.9 24 +26 +26 жарко 1010.1 966.9 +27.5 +27.1
В 4.1
{5.6}
+26.5 +5.6 26 +26 +26 жарко 1010.1 966.9 +26.9 +26.5
В 3.1
{4.1}
+25.7 +6.1 29 +25 +25 комфорт 1010.1 966.9 +26.2 +25.7
В 2.9
{3.7}
+25.0 +6.6 31 +25 +25 комфорт 1010.1 966.9 +25.7 +25.0
В 2.7
{3.5}
+24.1 +6.6 33 +24 +24 комфорт 1009.9 966.7 +24.4 +24.1
В 2.3
{3.3}
+24.1 +6.3 32 +24 +24 комфорт 1009.8 966.6 +24.1 +24.1
В 2.0
{2.7}
+23.8 +6.4 33 +24 +24 комфорт 1009.7 966.5 +24.0 +23.8
ЮВ 1.9
{2.9}
+23.7 +6.3 32 +24 +24 комфорт 1009.7 966.5 +23.8 +23.7
ЮВ 2.2
{3.2}
+23.7 +6.2 32 +24 +24 комфорт 1009.7 966.5 +23.7 +23.7
В 2.5
{3.5}
+23.6 +6.2 33 +24 +24 комфорт 1009.6 966.4 +23.7 +23.6
ЮВ 2.0
{3.4}
+23.7 +6.1 32 +24 +24 комфорт 1009.7 966.5 +23.7 +23.6
ЮВ 2.1
{3.1}
+23.7 +6.0 32 +24 +24 комфорт 1009.8 966.6 +23.7 +23.7
ЮВ 2.5
{3.4}
+24.0 +6.0 31 +24 +24 комфорт 1009.8 966.6 +24.0 +23.7
ЮВ 2.9
{4.2}
+24.1 +6.5 32 +24 +24 комфорт 1009.8 966.6 +24.2 +24.0
В 3.1
{4.8}
+24.1 +7.3 34 +24 +24 комфорт 1009.7 966.5 +24.3 +24.1
В 2.4
{4.0}
+23.1 +8.4 39 +24 +24 комфорт 1009.7 966.5 +24.1 +23.1
В 3.2
{4.2}
+23.0 +8.1 39 +24 +24 комфорт 1009.5 966.3 +23.1 +22.7
В 3.4
{4.4}
+23.3 +8.5 39 +25 +25 комфорт 1009.4 966.2 +23.4 +23.0
В 3.2
{4.2}
+23.0 +9.0 41 +24 +24 комфорт 1009.0 965.9 +23.2 +23.0
СВ 2.2
{3.1}
+21.8 +9.8 46 +23 +23 комфорт 1009.0 965.9 +23.0 +21.8
С 1.0
{1.8}
+21.1 +10.0 49 +23 +23 комфорт 1009.1 966.0 +21.4 +21.1
СЗ 0.8
{1.7}
+20.8 +10.8 53 +24 +24 комфорт 1009.1 966.0 +21.1 +20.8
СЗ 1.5
{2.1}
+20.1 +11.5 57 +23 +23 комфорт 1009.2 966.1 +20.8 +20.1
З 1.5
{1.8}
+19.8 +11.9 60 +22 +22 комфорт 1009.1 966.0 +20.1 +19.8
СЗ 1.6
{3.7}
+19.7 +12.6 64 +22 +22 комфорт 1008.9 965.8 +19.7 +19.5
В 0.6
{1.8}
+19.8 +12.9 64 +23 +23 комфорт 1008.9 965.8 +19.8 +19.6
ЮВ 1.3
{2.0}
+20.0 +13.4 66 +23 +23 комфорт 1008.8 965.7 +20.0 +19.8
ЮВ 1.9
{2.9}
+20.4 +13.3 64 +23 +23 комфорт 1008.9 965.8 +20.4 +20.0
ЮВ 2.4
{4.0}
+20.7 +13.3 62 +24 +24 комфорт 1008.8 965.7 +20.7 +20.4
ЮВ 3.1
{4.9}
+21.0 +12.4 58 +24 +24 комфорт 1008.7 965.6 +21.0 +20.7
В 3.4
{5.1}
+21.3 +11.4 53 +23 +23 комфорт 1008.5 965.4 +21.3 +21.0
В 3.2
{4.7}
+21.6 +10.6 50 +23 +23 комфорт 1008.5 965.4 +21.6 +21.3
В 2.8
{4.8}
+21.7 +10.0 47 +23 +23 комфорт 1008.7 965.6 +21.8 +21.7
В 3.9
{5.3}
+21.5 +9.8 47 +23 +23 комфорт 1008.2 965.1 +21.5 +21.4
В 4.1
{5.2}
+21.5 +9.7 47 +23 +23 комфорт 1008.0 964.9 +21.5 +21.5
В 3.8
{5.1}
+21.6 +9.5 46 +23 +23 комфорт 1007.8 964.7 +21.6 +21.5
В 4.3
{6.1}
+21.9 +9.7 46 +23 +23 комфорт 1007.7 964.6 +21.9 +21.7
В 3.8
{5.2}
+21.3 +11.1 52 +23 +23 комфорт 1007.7 964.6 +21.9 +21.3
В 2.7
{3.9}
+20.4 +12.9 62 +23 +23 комфорт 1007.8 964.7 +21.3 +20.4
В 2.1
{2.6}
+19.7 +14.4 71 +22 +22 комфорт 1007.7 964.6 +20.4 +19.7
СВ 1.4
{2.2}
+19.5 +14.7 74 +22 +22 комфорт 1007.8 964.7 +19.7 +19.5
В 1.5
{2.0}
+19.4 +15.2 76 +22 +22 комфорт 1007.8 964.7 +19.5 +19.4
В 1.8
{2.1}
+19.4 +15.2 76 +22 +22 комфорт 1007.7 964.6 +19.4 +19.4
В 1.2
{1.6}
+19.6 +14.3 72 +22 +22 комфорт 1007.8 964.7 +19.6 +19.4
Местоположение метеостанции Сентоб-Нурата (Навоийская область, Узбекистан): широта 40.72 долгота 66.42 высота над уровнем моря 0 м.
В архиве по умолчанию представлена погода в Сентоб-Нурате за последние 1-2 суток. Обновление информации о фактической погоде в базе происходит ежечасно! Архивные данные за месяц целиком и за предыдущие месяцы Вы можете получить, выбрав интересующий диапазон дат из раскрывающегося списка и нажав кнопку "Ввод!".
*Определитесь, кто Вы:
Внимание! Время в таблицах - местное (без учета летнего времени). Для получения всемирного времени необходимо вычесть поправку, которая равна 5 ч.
Смотрите также архив погоды на ближайших метеорологических станциях:
Партнеры нашего сайта:      
Пояснения к столбцам:
  • Ветер - указаны скорость ветра в м/с - средняя за 10 мин, порывы в срок и между сроками (в фигурных скобках) и направление, откуда дует ветер: С - северный,
  • СВ - северо-восточный, В - восточный, ЮВ - юго-восточный, Ю - южный, ЮЗ - юго-западный, З - западный, СЗ - северо-западный.
  • Видимость - горизонтальная дальность видимости в метрах или километрах. При видимости от 1 до 10 км при отсутствии осадков обычно наблюдается дымка, при ухудшении видимости до 1 км и менее - туман. В сухую погоду видимость может ухудшаться дымом, пылью или мглою.
  • Явления - указаны атмосферные явления, наблюдавшиеся в срок или в последний час перед сроком.
  • Солнечная радиация - мощность потока солнечного излучения на поверхность земли и предметов в Вт/м2.
  • T - Температура воздуха - температура, измеренная на высоте 2 м над землей.
  • Td - Температура точки росы - температура, при понижении до которой содержащийся в воздухе водяной пар достигнет насыщения.
  • f - Относительная влажность воздуха - влажноcть воздуха, измеренная на высоте 2 м над землей.
  • Te - Эффективная температура - температура, которую ощущает одетый по сезону человек в тени. Характеристика душности погоды. При расчете учитывается влияние влажности воздуха и скорости ветра на теплоощущения человека.
  • Tes - Эффективная температура на солнце - температура, которую ощущает человек, с поправкой на солнечный нагрев. Характеристика знойности погоды. Зависит от высоты солнца над горизонтом, облачности и скорости ветра. Ночью, в пасмурную погоду, а также при ветре 12 м/с и более поправка равна нулю.
  • P - Атмосферное давление - приведенное к уровню моря атмосферное давление.
  • Po - Атмосферное давление - измеренное на уровне метеостанции атмосферное давление.
  • Tmin - Минимальная температура - минимум температуры воздуха на высоте 2 м над землей.
  • Tmax - Максимальная температура - максимум температуры воздуха на высоте 2 м над землей.
  • R - Количество осадков - Количество выпавших осадков за период времени, мм. При наведении курсора мыши на число - период времени, за который выпало указанное количество осадков.